CW2927 Weather Reports


time (UTC)temp
F
wind
direction
speed
knots
gust
knots
rain 1hr
in
rain 24hr
in
rain mn
in
humidity
%
barometer
mb
20260508150705 48 263 2.6 7.8 0.00 0.00 0.00 64 1008.0
20260508150204 48 311 2.6 7.0 0.00 0.00 0.00 65 1008.0
20260508144704 47 268 4.3 6.1 0.00 0.00 0.00 64 1008.0
20260508144204 47 304 3.5 7.8 0.00 0.00 0.00 66 1008.1
20260508142704 46 251 2.6 5.2 0.00 0.00 0.00 65 1008.1
20260508142204 46 275 1.7 4.3 0.00 0.00 0.00 67 1008.0
20260508140706 46 295 2.6 4.3 0.00 0.00 0.00 69 1008.1
20260508140204 46 261 2.6 5.2 0.00 0.00 0.00 69 1008.0
20260508134704 45 295 1.7 5.2 0.00 0.00 0.00 69 1008.0
20260508134204 45 272 2.6 7.0 0.00 0.00 0.00 70 1008.1
20260508132704 45 278 2.6 4.3 0.00 0.00 0.00 70 1008.1
20260508132204 45 269 2.6 4.3 0.00 0.00 0.00 71 1008.1
20260508130704 45 276 2.6 2.6 0.00 0.00 0.00 73 1008.0
20260508130205 44 266 1.7 4.3 0.00 0.00 0.00 74 1008.0
20260508124704 44 250 1.7 2.6 0.00 0.00 0.00 75 1008.0
20260508124204 44 279 1.7 2.6 0.00 0.00 0.00 75 1008.0
20260508122704 43 282 2.6 2.6 0.00 0.00 0.00 75 1008.0
20260508122204 43 261 1.7 4.3 0.00 0.00 0.00 75 1007.9
20260508120204 42 276 1.7 2.6 0.00 0.00 0.00 77 1007.9
20260508114704 42 271 1.7 2.6 0.00 0.00 0.00 78 1007.8
20260508114204 42 261 2.6 4.3 0.00 0.00 0.00 80 1007.8
20260508112704 41 279 0.9 2.6 0.00 0.00 0.00 83 1007.6
20260508112204 41 279 0.0 1.7 0.00 0.00 0.00 84 1007.6
20260508110704 40 279 0.9 2.6 0.00 0.00 0.00 84 1007.6
20260508110204 40 279 0.0 0.9 0.00 0.00 0.00 84 1007.5
20260508104704 40 279 0.9 2.6 0.00 0.00 0.00 85 1007.4
20260508104204 40 279 0.9 4.3 0.00 0.00 0.00 85 1007.3
20260508102704 39 283 0.9 2.6 0.00 0.00 0.00 85 1007.2
20260508102204 39 283 1.7 2.6 0.00 0.00 0.00 86 1007.2
20260508100704 39 283 0.0 1.7 0.00 0.00 0.00 86 1007.1
20260508100204 39 283 0.9 2.6 0.00 0.00 0.00 87 1007.0
20260508094704 39 283 0.9 1.7 0.00 0.00 0.00 87 1006.9
20260508094204 39 283 0.9 1.7 0.00 0.00 0.00 87 1006.9
20260508092204 38 283 0.0 1.7 0.00 0.00 0.00 88 1006.7
20260508090703 38 283 0.0 0.9 0.00 0.00 0.00 88 1006.7
20260508090204 38 283 0.0 0.9 0.00 0.00 0.00 88 1006.8
20260508084704 38 283 0.0 0.9 0.00 0.00 0.00 88 1006.7
20260508084204 38 283 0.9 1.7 0.00 0.00 0.00 88 1006.8
20260508082704 38 283 0.0 1.7 0.00 0.00 0.00 89 1006.8
20260508082204 38 283 0.0 0.9 0.00 0.00 0.00 89 1006.7
20260508080704 38 283 0.0 0.0 0.00 0.00 0.00 89 1006.7
20260508080203 38 283 0.0 1.7 0.00 0.00 0.00 89 1006.7
20260508074706 38 283 0.0 0.0 0.00 0.00 0.00 89 1006.6
20260508074205 38 283 0.0 1.7 0.00 0.00 0.00 89 1006.6
20260508072706 38 283 0.0 0.0 0.00 0.00 0.00 90 1006.7
20260508072205 37 283 0.0 1.7 0.00 0.00 0.00 89 1006.7
20260508070705 37 283 0.9 2.6 0.00 0.00 0.00 90 1006.7
20260508070205 37 283 0.0 1.7 0.00 0.00 0.00 90 1006.7
20260508064706 37 283 0.9 1.7 0.00 0.00 0.00 89 1006.6
20260508064205 37 283 0.0 1.7 0.00 0.00 0.00 89 1006.7
20260508062705 36 283 0.0 0.9 0.00 0.00 0.00 89 1006.7
20260508062206 36 283 0.0 0.9 0.00 0.00 0.00 89 1006.7
20260508060705 36 283 0.0 0.0 0.00 0.00 0.00 89 1006.8
20260508060205 36 283 0.0 1.7 0.00 0.00 0.00 89 1006.8
20260508054705 36 283 0.9 1.7 0.00 0.00 0.00 89 1006.9
20260508054205 36 283 0.9 1.7 0.00 0.00 0.00 89 1007.0
20260508052705 36 283 0.0 0.0 0.00 0.00 0.00 89 1007.0
20260508052205 36 283 0.0 0.9 0.00 0.00 0.00 89 1006.9
20260508050705 36 283 0.0 0.0 0.00 0.00 0.00 88 1006.9
20260508050205 36 283 0.0 0.9 0.00 0.00 0.00 88 1007.0
20260508044705 36 283 0.9 0.9 0.00 0.00 0.00 88 1007.1
20260508044205 36 283 0.9 2.6 0.00 0.00 0.00 88 1007.2
20260508042704 36 283 0.9 1.7 0.00 0.00 0.00 87 1007.1
20260508042205 36 283 0.9 1.7 0.00 0.00 0.00 87 1007.0
20260508040705 37 283 0.0 0.0 0.00 0.00 0.00 85 1007.0
20260508040205 37 283 0.0 0.0 0.00 0.00 0.00 85 1007.0
20260508034705 38 283 0.0 0.0 0.00 0.00 0.00 84 1006.9
20260508034205 38 283 0.0 1.7 0.00 0.00 0.00 84 1007.0
20260508032704 39 283 0.0 0.0 0.00 0.00 0.00 83 1007.0
20260508032205 39 283 0.9 1.7 0.00 0.00 0.00 82 1007.0
20260508030705 40 283 0.0 0.9 0.00 0.00 0.00 81 1007.1
20260508030205 41 283 0.0 0.9 0.00 0.00 0.00 80 1007.1
20260508024705 41 283 0.9 1.7 0.00 0.00 0.00 78 1007.1
20260508024205 42 283 0.9 2.6 0.00 0.00 0.00 78 1007.1
20260508022704 43 283 0.9 2.6 0.00 0.00 0.00 77 1007.2
20260508022204 43 283 1.7 2.6 0.00 0.00 0.00 76 1007.2
20260508020705 44 288 1.7 2.6 0.00 0.00 0.00 74 1007.0
20260508020205 44 296 2.6 4.3 0.00 0.00 0.00 73 1007.0
20260508014704 45 292 2.6 2.6 0.00 0.00 0.00 71 1007.0
20260508014205 45 291 1.7 2.6 0.00 0.00 0.00 71 1006.9
20260508012705 45 287 2.6 6.1 0.00 0.00 0.00 70 1007.0
20260508012205 45 296 1.7 5.2 0.00 0.00 0.00 70 1006.9
20260508010705 45 276 2.6 5.2 0.00 0.00 0.00 69 1006.9
20260508010205 46 276 2.6 5.2 0.00 0.00 0.00 69 1006.9
20260508004704 46 271 2.6 2.6 0.00 0.00 0.00 68 1006.6
20260508004205 46 294 3.5 7.0 0.00 0.00 0.00 68 1006.5
20260508002705 46 281 3.5 7.0 0.00 0.00 0.00 66 1006.4
20260508002205 46 312 2.6 7.0 0.00 0.00 0.00 66 1006.3
20260508000705 46 282 4.3 6.1 0.00 0.00 0.00 66 1006.3
20260508000205 46 284 2.6 11.3 0.00 0.00 0.00 67 1006.3
20260507234705 47 315 4.3 7.0 0.00 0.00 0.00 65 1006.1
20260507234205 47 294 4.3 7.8 0.00 0.00 0.00 65 1006.0
20260507232705 47 301 6.1 13.9 0.00 0.00 0.00 63 1005.9
20260507232205 47 281 3.5 13.9 0.00 0.00 0.00 63 1005.9
20260507230705 47 275 2.6 11.3 0.00 0.00 0.00 63 1005.8
20260507230205 47 273 4.3 13.9 0.00 0.00 0.00 64 1005.9
20260507224705 49 302 7.8 12.2 0.00 0.00 0.00 63 1005.8
20260507224205 49 291 6.1 15.6 0.00 0.00 0.00 60 1005.8
20260507222705 50 311 7.8 18.2 0.00 0.00 0.00 57 1005.7
20260507222205 50 275 6.1 13.9 0.00 0.00 0.00 61 1005.6
20260507220705 50 294 8.7 13.9 0.00 0.00 0.00 59 1005.5
20260507220205 50 287 7.0 14.8 0.00 0.00 0.00 59 1005.5
20260507214704 50 276 9.6 13.9 0.00 0.00 0.00 59 1005.4
20260507214204 50 281 6.1 13.9 0.00 0.00 0.00 59 1005.4
20260507212705 50 298 7.8 15.6 0.00 0.00 0.00 59 1005.4
20260507212205 50 318 8.7 15.6 0.00 0.00 0.00 56 1005.2
20260507210705 50 265 8.7 13.0 0.00 0.00 0.00 55 1005.0
20260507210205 50 281 4.3 13.9 0.00 0.00 0.00 58 1005.0
20260507204704 50 277 6.1 17.4 0.00 0.00 0.00 54 1005.1
20260507204204 50 292 11.3 17.4 0.00 0.00 0.00 52 1005.0
20260507202704 51 302 10.4 14.8 0.00 0.00 0.00 52 1004.8
20260507202204 51 274 5.2 17.4 0.00 0.00 0.00 52 1004.8
20260507200704 53 261 5.2 15.6 0.00 0.00 0.00 49 1004.7
20260507200204 53 293 7.8 15.6 0.00 0.00 0.00 49 1004.6
20260507194705 52 246 5.2 13.9 0.00 0.00 0.00 51 1004.5
20260507194204 52 229 6.1 14.8 0.00 0.00 0.00 51 1004.5
20260507192705 51 231 5.2 14.8 0.00 0.00 0.00 54 1004.5
20260507192205 51 296 6.1 14.8 0.00 0.00 0.00 53 1004.5
20260507190705 51 260 6.1 13.9 0.00 0.00 0.00 52 1004.5
20260507184704 51 266 3.5 13.0 0.00 0.00 0.00 55 1004.6
20260507184204 51 284 7.8 14.8 0.00 0.00 0.00 53 1004.6
20260507182705 51 302 5.2 14.8 0.00 0.00 0.00 55 1004.4
20260507182205 51 250 6.1 14.8 0.00 0.00 0.00 57 1004.5
20260507180704 50 301 4.3 13.9 0.00 0.01 0.00 58 1004.5
20260507180204 51 271 6.1 17.4 0.00 0.01 0.00 56 1004.5
20260507174705 52 232 6.1 13.9 0.00 0.01 0.00 58 1004.4
20260507174204 51 239 4.3 14.8 0.00 0.01 0.00 58 1004.4
20260507172705 52 234 4.3 13.0 0.00 0.01 0.00 58 1004.5
20260507172204 51 206 4.3 13.9 0.00 0.01 0.00 60 1004.6
20260507170704 50 227 5.2 13.9 0.00 0.02 0.00 60 1004.6
20260507170205 51 242 5.2 14.8 0.00 0.02 0.00 58 1004.8
20260507164704 52 232 6.1 12.2 0.00 0.02 0.00 60 1004.8
20260507164204 52 202 6.1 13.9 0.00 0.03 0.00 60 1004.9
20260507162704 52 230 5.2 11.3 0.00 0.04 0.00 61 1005.0
20260507162206 51 244 7.8 15.6 0.00 0.05 0.00 60 1005.0
20260507160704 51 232 5.2 14.8 0.00 0.06 0.00 61 1005.1
20260507154704 51 229 5.2 10.4 0.00 0.07 0.00 61 1005.1
20260507154204 51 230 5.2 13.0 0.00 0.07 0.00 62 1005.2
20260507152704 51 205 5.2 11.3 0.00 0.09 0.00 64 1005.1
20260507152205 51 208 4.3 15.6 0.00 0.09 0.00 67 1005.1